Regional Weather Roundup
Issued by NWS Upton, NY

Current Version | Previous Version | Graphics & Text | Print | Product List | Glossary Off
Versions: 1 2 3 4 5 6 7 8 9 10 11 12 13 14 15 16 17 18 19 20 21 22 23 24 25 26 27 28 29 30 31 32 33 34 35 36 37 38 39 40 41 42 43 44 45 46 47 48 49 50

000
ASUS41 KOKX 270005
RWROKX

REGIONAL WEATHER ROUNDUP
NATIONAL WEATHER SERVICE NEW YORK NY
700 PM EST WED NOV 26 2014

NOTE: "FAIR" INDICATES FEW OR NO CLOUDS BELOW 12,000 FEET WITH NO
SIGNIFICANT WEATHER AND/OR OBSTRUCTIONS TO VISIBILITY.

NYZ071-072-176-178-NJZ106-104-270100-
NEW YORK CITY METRO AREA


CITY           SKY/WX    TMP DP  RH WIND       PRES   REMARKS
CENTRAL PARK   CLOUDY    36  32  85 N9G21     29.80F FOG     WCI  29
LAGUARDIA APRT LGT SNOW  36  34  92 N21G31    29.77F FOG     WCI  25
KENNEDY INTL   LGT RAIN  38  34  85 N20G29    29.76F FOG     WCI  28
NEWARK/LIBERTY LGT RAIN  35  34  96 N18G25    29.80F FOG     WCI  24
BRNX BOT. GARD   N/A     34  32  93 NW16      29.79S WCI  23
TETERBORO      LGT RAIN  35  32  88 N15G25    29.79F WCI  25
$$

NYZ177-179-078>081-270100-
LONG ISLAND NEW YORK

CITY           SKY/WX    TMP DP  RH WIND       PRES   REMARKS
FARMINGDALE    LGT RAIN  39  35  86 N20G28    29.72S WCI  29
ISLIP          LGT RAIN  38  34  85 N18G28    29.69R FOG     WCI  28
SHIRLEY        RAIN      38  36  92 N16G25    29.71R FOG     WCI  29
WESTHAMPTON    LGT RAIN  39  36  89 N20G29    29.68R WCI  29
MONTAUK POINT    N/A     43  40  89 NE16G28   29.64F
$$

NYZ052-065-067-270100-
HUDSON VALLEY

CITY           SKY/WX    TMP DP  RH WIND       PRES   REMARKS
WHITE PLAINS   LGT RAIN  34  32  92 N20       29.76F FOG     WCI  23
NEWBURGH       LGT SNOW  32  32 100 N14G23    29.86R WCI  22
MONTGOMERY     LGT SNOW  33  32  96 N5        29.86R FOG     WCI  29
POUGHKEEPSIE   LGT SNOW  34  31  88 N12       29.85F FOG     WCI  25
ALBANY         LGT SNOW  32  29  88 N15       29.94F VSB 1   WCI  22
$$

NJZ001-105-106-008-010-013-015-019>022-104-270100-
NEW JERSEY

CITY           SKY/WX    TMP DP  RH WIND       PRES   REMARKS
NEWARK/LIBERTY LGT RAIN  35  34  96 N18G25    29.80F FOG     WCI  24
TETERBORO      LGT RAIN  35  32  88 N15G25    29.79F WCI  25
CALDWELL       LGT RAIN  33  30  88 NE6       29.83R FOG     WCI  28
MORRISTOWN     LGT RAIN  36  34  93 N9G17     29.94R FOG     WCI  29
SOMERVILLE     LGT RAIN  35  32  88 NW8       29.84R FOG     WCI  29
SUSSEX         LGT SNOW  34  32  92 MISG      29.87R FOG
ANDOVER          N/A     33  32  96 N7        29.86R WCI  27
TRENTON        LGT SNOW  34  31  88 N10       29.83S FOG     WCI  26
MILLVILLE      MIX PCPN  35  33  92 NW15G24   29.84R FOG     WCI  25
ATLANTIC CITY  LGT SNOW  36  35  96 NW21G28   29.79S FOG     WCI  25
WRIGHTSTOWN    LGT SNOW  35  35  98 NW15G23   29.80R FOG     WCI  26
TOMS RIVER     CLOUDY    36  34  93 NW7       29.78R WCI  30
BELMAR         CLOUDY    37  30  75 NW17G23   29.76R WCI  28
$$

PAZ047>061-062-071-270100-
EASTERN PENNSYLVANIA

CITY           SKY/WX    TMP DP  RH WIND       PRES   REMARKS
PHILADELPHIA   LGT SNOW  36  33  89 NW17      29.87S FOG     WCI  26
ALLENTOWN      LGT SNOW  34  31  88 NW8       29.90S FOG     WCI  27
SCRANTON       LGT SNOW  33  29  85 NW9       29.93F FOG     WCI  25
$$

CTZ002-004>006-009-010-012-RIZ004-006-007-MAZ004-011-015-270100-
SOUTHERN NEW ENGLAND
 IN CT

CITY           SKY/WX    TMP DP  RH WIND       PRES   REMARKS
BRADLEY INTL   LGTSLEET  34  31  88 N17G26    29.78F FOG     WCI  23
HARTFORD       LGT RAIN  34  31  88 N14G24    29.78F FOG     WCI  25
DANBURY        LGT RAIN  34  32  92 N8        29.79F FOG     WCI  27
WTRBRY/OXFORD  LGT SNOW  34  27  75 NE22G30   29.77  FOG     WCI  22
BRIDGEPORT     LGT SNOW  37  34  89 N17G30    29.74S FOG     WCI  27
MERIDEN        LGT RAIN  35  31  85 N16G24    29.76F FOG     WCI  25
NEW HAVEN      LGT RAIN  38  33  82 N17G23    29.72R WCI  28
CHESTER        LGT RAIN  36  34  93 N17G28    29.70R WCI  25
GROTON         LGT RAIN  37  35  92 N23G38    29.64F WCI  26
WILLIMANTIC    LGT RAIN  36  31  82 N20G30    29.71F WCI  25

 IN RI

CITY           SKY/WX    TMP DP  RH WIND       PRES   REMARKS
PROVIDENCE     RAIN      38  36  92 N18G24    29.69F WCI  28
BLOCK ISLAND   CLOUDY    43  39  87 NE24G38   29.60F
WESTERLY       LGT RAIN  38  36  92 N16G26    29.63F WCI  29

 IN MA

CITY           SKY/WX    TMP DP  RH WIND       PRES   REMARKS
BOSTON         RAIN      37  35  92 N21G36    29.80F FOG     WCI  26
WORCESTER      MIX PCPN  30  30 100 NE20G33   29.72F FOG     WCI  17
WESTFIELD      LGT SNOW  33  31  92 N21G28    29.80F VSB 1   WCI  21
PROVINCETOWN   CLOUDY    46  39  76 NE36G46   29.72F
NANTUCKET      RAIN      47  44  90 NE24G35   29.61F FOG
$$

ANZ330-335-338-340-345-350-353-355-270100-
COASTAL MARINE OBSERVATIONS


STATION/POSITION TIME  SKY/WX   TEMP    WIND        PRES    VSBY  WAVE
                                AIR SEA DIR/SP/G                  HT/PER
                 (UTC)          (F)     (DEG/KT/KT) (MB)    (MI)  (FT/S)
NY HARB ENTRANCE 0000            41 54  350/ 25/ 31 1006.1          8/ 8
4S FIRE IS       0000               53                N/A           8/ 7
20S FIRE ISLAND  0000            43 55   10/ 29/ 35 1003.5         11/ 8
23SW MTP         0000                                 N/A          13/ 8
HUDSON CANYON    0000            54 59   40/ 21/ 27  998.7
EXECUTION ROCKS  0000            38 48  350/ 19/ 27   N/A
WESTERN LI SOUND 0000            39     360/ 19/ 23   N/A           3/ 6
CENTRAL LI SOUND 2300            39 50   10/ 23/ 31   N/A           4/ 5
EASTERN LI SOUND 2300            40 52   40/ 23/ 31   N/A
ROBBINS REEF     0000            36     350/ 19/ 23 1007.4
$$


>>>>>>>>>>>>>>>>>>>>>>>>>>>> KEY <<<<<<<<<<<<<<<<<<<<<<<<<<<
>                                                          <
>     SKY/WX - SKY CONDITION/PRESENT WEATHER               <
>     TMP    - TEMPERATURE IN FAHRENHEIT                   <
>     DP     - DEWPOINT IN FAHRENHEIT                      <
>     RH     - RELATIVE HUMIDITY IN PERCENT                <
>     WIND   - DIRECTION AND SPEED IN MPH                  <
>     PRES   - MEAN SEA LEVEL PRESSURE IN INCHES OF HG     <
>     WCI    - WIND CHILL INDEX                            <
>     VSB    - VISIBILITY IN MILES                         <
>     HX     - HEAT INDEX                                  <
>     TC     - TEMPERATURE IN CELSIUS                      <
>     VRB    - VARIABLE WIND DIRECTION                     <
>                                                          <
>>>>>>>>>>>>>>>>>>>>>>>>>>>> KEY <<<<<<<<<<<<<<<<<<<<<<<<<<<





USA.gov is the U.S. government's official web portal to all federal, state and local government web resources and services.